TimeCDT,TemperatureF,Dew PointF,Humidity,Sea Level PressureIn,VisibilityMPH,Wind Direction,Wind SpeedMPH,Gust SpeedMPH,PrecipitationIn,Events,Conditions,WindDirDegrees,DateUTC
12:15 AM,32.0,30.2,93,30.04,10.0,West,11.5,16.1,N/A,,Scattered Clouds,270,2012-10-26 05:15:00
1:15 AM,33.8,30.2,87,30.06,10.0,West,11.5,-,N/A,,Scattered Clouds,270,2012-10-26 06:15:00
1:35 AM,32.0,30.2,93,30.07,10.0,West,10.4,-,N/A,,Scattered Clouds,260,2012-10-26 06:35:00
2:15 AM,33.8,30.2,87,30.09,10.0,West,10.4,-,N/A,,Overcast,260,2012-10-26 07:15:00
2:35 AM,32.0,30.2,93,30.10,10.0,West,10.4,16.1,N/A,,Mostly Cloudy,270,2012-10-26 07:35:00
2:55 AM,32.0,30.2,93,30.10,10.0,West,10.4,-,N/A,,Clear,270,2012-10-26 07:55:00
3:15 AM,32.0,28.4,87,30.11,10.0,West,9.2,-,N/A,,Clear,260,2012-10-26 08:15:00
3:35 AM,32.0,28.4,87,30.11,10.0,West,10.4,-,N/A,,Clear,260,2012-10-26 08:35:00
3:55 AM,32.0,28.4,87,30.12,10.0,West,10.4,-,N/A,,Clear,260,2012-10-26 08:55:00
4:15 AM,32.0,28.4,87,30.12,10.0,West,10.4,-,N/A,,Clear,270,2012-10-26 09:15:00
4:35 AM,32.0,28.4,87,30.13,10.0,West,10.4,-,N/A,,Clear,270,2012-10-26 09:35:00
4:55 AM,32.0,28.4,87,30.13,10.0,West,11.5,-,N/A,,Clear,270,2012-10-26 09:55:00
5:15 AM,32.0,28.4,87,30.14,10.0,West,10.4,-,N/A,,Clear,270,2012-10-26 10:15:00
5:35 AM,32.0,28.4,87,30.14,10.0,West,10.4,-,N/A,,Clear,270,2012-10-26 10:35:00
5:45 AM,32.0,26.6,80,30.15,10.0,West,9.2,-,N/A,,Clear,270,2012-10-26 10:45:00
6:45 AM,30.2,26.6,86,30.18,10.0,West,11.5,-,N/A,,Clear,260,2012-10-26 11:45:00
7:45 AM,30.2,28.4,93,30.21,10.0,WSW,10.4,-,N/A,,Clear,250,2012-10-26 12:45:00
8:45 AM,32.0,28.4,87,30.25,10.0,West,11.5,19.6,N/A,,Clear,260,2012-10-26 13:45:00
10:55 AM,37.4,28.4,70,30.29,10.0,West,17.3,24.2,N/A,,Scattered Clouds,280,2012-10-26 15:55:00
11:45 AM,37.4,26.6,65,30.29,10.0,West,15.0,23.0,N/A,,Overcast,270,2012-10-26 16:45:00
12:45 PM,37.4,24.8,60,30.30,10.0,West,15.0,20.7,N/A,,Overcast,280,2012-10-26 17:45:00
1:45 PM,37.4,26.6,65,30.28,10.0,West,11.5,-,N/A,,Overcast,270,2012-10-26 18:45:00
2:45 PM,37.4,26.6,65,30.28,10.0,West,10.4,-,N/A,,Overcast,270,2012-10-26 19:45:00
3:45 PM,37.4,26.6,65,30.28,10.0,West,12.7,17.3,N/A,,Overcast,260,2012-10-26 20:45:00
4:50 PM,35.6,24.8,65,30.29,10.0,West,15.0,-,N/A,,Overcast,260,2012-10-26 21:50:00
5:45 PM,35.6,24.8,65,30.29,10.0,West,8.1,17.3,N/A,,Overcast,270,2012-10-26 22:45:00
6:45 PM,35.6,24.8,65,30.30,10.0,West,9.2,-,N/A,,Overcast,280,2012-10-26 23:45:00
7:45 PM,35.6,24.8,65,30.32,10.0,WSW,9.2,-,N/A,,Overcast,250,2012-10-27 00:45:00
8:45 PM,35.6,24.8,65,30.32,10.0,West,9.2,-,N/A,,Overcast,270,2012-10-27 01:45:00
9:45 PM,35.6,21.2,56,30.32,10.0,WNW,10.4,18.4,N/A,,Overcast,290,2012-10-27 02:45:00
10:15 PM,33.8,23.0,65,30.32,10.0,West,8.1,-,N/A,,Overcast,280,2012-10-27 03:15:00
10:35 PM,33.8,23.0,65,30.32,10.0,WNW,8.1,-,N/A,,Overcast,300,2012-10-27 03:35:00
10:55 PM,33.8,21.2,60,30.32,10.0,West,9.2,-,N/A,,Overcast,280,2012-10-27 03:55:00
11:15 PM,33.8,23.0,65,30.32,10.0,WNW,8.1,-,N/A,,Overcast,300,2012-10-27 04:15:00
11:35 PM,33.8,21.2,60,30.31,10.0,WNW,6.9,-,N/A,,Overcast,300,2012-10-27 04:35:00
11:55 PM,32.0,21.2,64,30.31,10.0,WNW,5.8,-,N/A,,Scattered Clouds,300,2012-10-27 04:55:00